FW9328 Weather Reports


Display with metric or nautical units.
time (UTC)temp
F
wind
direction
speed
MPH
gust
MPH
rain 1hr
in
rain 24hr
in
rain mn
in
humidity
%
barometer
mb
20210917170545 55 73 0.0 8.0 0.00 0.00 0.00 58 1029.0
20210917170100 55 82 2.0 8.0 0.00 0.00 0.00 58 1029.2
20210917165541 54 121 1.0 7.0 0.00 0.00 0.00 58 1029.2
20210917165039 54 309 2.0 8.0 0.00 0.00 0.00 57 1029.2
20210917164621 54 67 2.0 8.0 0.00 0.00 0.00 59 1029.3
20210917164041 54 0 0.0 3.0 0.00 0.00 0.00 58 1029.2
20210917163541 54 121 1.0 4.0 0.00 0.00 0.00 58 1029.4
20210917163056 53 31 0.0 4.0 0.00 0.00 0.00 61 1029.4
20210917162543 53 24 1.0 4.0 0.00 0.00 0.00 61 1029.5
20210917162045 53 46 1.0 5.0 0.00 0.00 0.00 61 1029.4
20210917161742 53 0 1.0 5.0 0.00 0.00 0.00 62 1029.5
20210917161048 52 48 0.0 5.0 0.00 0.00 0.00 61 1029.6
20210917160548 52 27 2.0 5.0 0.00 0.00 0.00 61 1029.6
20210917160120 52 0 1.0 5.0 0.00 0.00 0.00 61 1029.5
20210917155541 52 37 1.0 4.0 0.00 0.00 0.00 62 1029.5
20210917155042 52 17 1.0 4.0 0.00 0.00 0.00 62 1029.6
20210917154615 52 39 1.0 4.0 0.00 0.00 0.00 63 1029.6
20210917154042 52 0 1.0 5.0 0.00 0.00 0.00 63 1029.6
20210917153550 52 0 0.0 5.0 0.00 0.00 0.00 62 1029.6
20210917153104 51 27 2.0 4.0 0.00 0.00 0.00 61 1029.5
20210917152559 51 347 1.0 4.0 0.00 0.00 0.00 63 1029.6
20210917152044 51 35 1.0 4.0 0.00 0.00 0.00 62 1029.6
20210917151636 51 34 1.0 4.0 0.00 0.00 0.00 63 1029.6
20210917151055 51 43 1.0 4.0 0.00 0.00 0.00 63 1029.6
20210917150554 51 0 1.0 4.0 0.00 0.00 0.00 63 1029.6
20210917150112 51 0 1.0 4.0 0.00 0.00 0.00 63 1029.6
20210917145543 51 360 2.0 4.0 0.00 0.00 0.00 63 1029.6
20210917145043 51 44 1.0 4.0 0.00 0.00 0.00 64 1029.4
20210917144642 51 50 1.0 4.0 0.00 0.00 0.00 64 1029.5
20210917144044 51 346 1.0 3.0 0.00 0.00 0.00 64 1029.5
20210917143543 51 0 0.0 4.0 0.00 0.00 0.00 65 1029.5
20210917143256 50 0 1.0 4.0 0.00 0.00 0.00 64 1029.4
20210917142544 50 0 0.0 1.0 0.00 0.00 0.00 67 1029.4
20210917142047 50 0 0.0 2.0 0.00 0.00 0.00 66 1029.5
20210917141621 50 0 0.0 3.0 0.00 0.00 0.00 68 1029.5
20210917141043 50 0 1.0 3.0 0.00 0.00 0.00 66 1029.5
20210917140540 50 0 0.0 3.0 0.00 0.00 0.00 69 1029.4
20210917140137 50 0 1.0 3.0 0.00 0.00 0.00 66 1029.4
20210917135553 50 28 0.0 2.0 0.00 0.00 0.00 68 1029.4
20210917135043 50 0 0.0 3.0 0.00 0.00 0.00 67 1029.4
20210917134607 49 352 1.0 3.0 0.00 0.00 0.00 68 1029.4
20210917134107 49 0 0.0 2.0 0.00 0.00 0.00 69 1029.4
20210917133542 49 0 0.0 2.0 0.00 0.00 0.00 68 1029.3
20210917133209 49 310 0.0 2.0 0.00 0.00 0.00 68 1029.3
20210917132600 49 0 0.0 1.0 0.00 0.00 0.00 69 1029.2
20210917132050 49 0 0.0 1.0 0.00 0.00 0.00 68 1029.2
20210917131625 49 0 0.0 1.0 0.00 0.00 0.00 71 1029.2
20210917131041 49 0 0.0 1.0 0.00 0.00 0.00 72 1029.1
20210917130550 48 0 0.0 1.0 0.00 0.00 0.00 71 1029.0
20210917130204 48 0 0.0 1.0 0.00 0.00 0.00 70 1028.9
20210917125549 48 0 0.0 1.0 0.00 0.00 0.00 71 1028.8
20210917125043 48 0 0.0 1.0 0.00 0.00 0.00 72 1028.8
20210917124628 48 0 0.0 1.0 0.00 0.00 0.00 72 1028.8
20210917124045 48 0 0.0 1.0 0.00 0.00 0.00 72 1028.8
20210917123551 48 0 0.0 2.0 0.00 0.00 0.00 73 1028.7
20210917123106 48 0 0.0 2.0 0.00 0.00 0.00 73 1028.7
20210917122546 47 0 0.0 2.0 0.00 0.00 0.00 73 1028.6
20210917122045 47 0 0.0 1.0 0.00 0.00 0.00 73 1028.7
20210917121653 47 0 0.0 1.0 0.00 0.00 0.00 73 1028.7
20210917121043 47 0 0.0 1.0 0.00 0.00 0.00 73 1028.6
20210917120543 47 0 0.0 1.0 0.00 0.00 0.00 73 1028.6
20210917120108 47 0 0.0 1.0 0.00 0.00 0.00 72 1028.6
20210917115542 47 0 0.0 1.0 0.00 0.00 0.00 72 1028.4
20210917115129 47 0 0.0 1.0 0.00 0.00 0.00 71 1028.5
20210917114633 48 0 0.0 1.0 0.00 0.00 0.00 71 1028.5
20210917114044 48 0 0.0 1.0 0.00 0.00 0.00 70 1028.3
20210917113544 48 0 0.0 0.0 0.00 0.00 0.00 70 1028.2
20210917113207 48 0 0.0 2.0 0.00 0.00 0.00 69 1028.2
20210917112613 49 0 0.0 2.0 0.00 0.00 0.00 69 1028.2
20210917112044 49 0 0.0 2.0 0.00 0.00 0.00 68 1027.9
20210917111620 49 0 0.0 3.0 0.00 0.00 0.00 69 1027.8
20210917111048 49 0 0.0 3.0 0.00 0.00 0.00 67 1027.5
20210917110544 49 30 0.0 3.0 0.00 0.00 0.00 68 1027.4
20210917110058 50 0 0.0 3.0 0.00 0.00 0.00 67 1027.4
20210917105543 50 0 0.0 3.0 0.00 0.00 0.00 67 1027.3
20210917105044 50 0 0.0 3.0 0.00 0.00 0.00 66 1027.3
20210917104628 50 0 0.0 3.0 0.00 0.00 0.00 66 1027.1
20210917104109 51 351 0.0 3.0 0.00 0.00 0.00 64 1027.2
20210917103611 51 0 1.0 3.0 0.00 0.00 0.00 64 1027.0
20210917103238 51 0 0.0 1.0 0.00 0.00 0.00 63 1027.0
20210917102544 52 0 0.0 1.0 0.00 0.00 0.00 63 1026.9
20210917102053 52 0 0.0 3.0 0.00 0.00 0.00 63 1026.7
20210917101751 53 0 1.0 4.0 0.00 0.00 0.00 62 1026.6
20210917101051 53 28 2.0 4.0 0.00 0.00 0.00 61 1026.5
20210917100551 53 0 0.0 4.0 0.00 0.00 0.00 61 1026.4
20210917100232 54 360 1.0 4.0 0.00 0.00 0.00 61 1026.3
20210917095543 54 0 0.0 2.0 0.00 0.00 0.00 61 1026.2
20210917095108 54 0 0.0 3.0 0.00 0.00 0.00 61 1026.0
20210917094628 55 0 0.0 3.0 0.00 0.00 0.00 60 1026.0
20210917094127 55 0 0.0 5.0 0.00 0.00 0.00 60 1025.9
20210917093543 56 0 2.0 9.0 0.00 0.00 0.00 59 1025.8
20210917093053 56 31 4.0 9.0 0.00 0.00 0.00 58 1025.6
20210917092555 56 21 2.0 8.0 0.00 0.00 0.00 59 1025.3
20210917092040 57 83 3.0 8.0 0.00 0.00 0.00 59 1025.1
20210917091558 57 39 2.0 6.0 0.00 0.00 0.00 59 1025.2
20210917091042 57 5 1.0 4.0 0.00 0.00 0.00 58 1025.0
20210917090600 58 24 0.0 3.0 0.00 0.00 0.00 58 1024.8
20210917090109 58 0 0.0 8.0 0.00 0.00 0.00 59 1024.7
20210917085543 58 44 0.0 8.0 0.00 0.00 0.00 58 1024.5
20210917085045 59 37 2.0 6.0 0.00 0.00 0.00 58 1024.4
20210917084551 59 29 2.0 6.0 0.00 0.00 0.00 58 1024.3
20210917084040 59 336 2.0 6.0 0.00 0.00 0.00 58 1024.2
20210917083608 59 28 2.0 5.0 0.00 0.00 0.00 57 1024.1
20210917083051 60 35 2.0 9.0 0.00 0.00 0.00 56 1024.0
20210917082541 60 18 2.0 9.0 0.00 0.00 0.00 56 1023.9
20210917082041 60 49 3.0 8.0 0.00 0.00 0.00 55 1023.8
20210917081717 60 320 2.0 8.0 0.00 0.00 0.00 55 1023.7
20210917081046 60 0 1.0 9.0 0.00 0.00 0.00 54 1023.6
20210917080542 61 305 2.0 12.0 0.00 0.00 0.00 54 1023.4
20210917080112 61 254 5.0 12.0 0.00 0.00 0.00 54 1023.2
20210917075541 61 336 3.0 10.0 0.00 0.00 0.00 53 1023.1
20210917075041 61 344 3.0 11.0 0.00 0.00 0.00 52 1023.0
20210917074645 62 338 2.0 12.0 0.00 0.00 0.00 51 1023.0
20210917074041 62 342 2.0 15.0 0.00 0.00 0.00 51 1023.1
20210917073547 62 290 7.0 19.0 0.00 0.00 0.00 50 1022.8
20210917073116 63 88 8.0 19.0 0.00 0.00 0.00 49 1022.8
20210917072541 63 346 5.0 12.0 0.00 0.00 0.00 48 1022.8
20210917072045 63 16 3.0 19.0 0.00 0.00 0.00 47 1022.4
20210917071618 64 347 6.0 19.0 0.00 0.00 0.00 47 1022.0
20210917071043 64 32 8.0 17.0 0.00 0.00 0.00 45 1021.8
20210917070553 65 30 6.0 12.0 0.00 0.00 0.00 45 1021.6
20210917070141 65 327 5.0 12.0 0.00 0.00 0.00 44 1021.2
20210917065539 65 30 3.0 10.0 0.00 0.00 0.00 43 1020.7
20210917065042 65 11 3.0 8.0 0.00 0.00 0.00 42 1020.3
20210917064554 65 352 1.0 9.0 0.00 0.00 0.00 42 1019.9
20210917064059 66 311 2.0 9.0 0.00 0.00 0.00 42 1019.5
20210917063608 66 5 3.0 9.0 0.00 0.00 0.00 41 1019.4
20210917063127 66 352 2.0 10.0 0.00 0.00 0.00 40 1019.3
20210917062600 66 350 3.0 12.0 0.00 0.00 0.00 40 1019.2
20210917062045 66 329 4.0 13.0 0.00 0.00 0.00 37 1019.1
20210917061600 65 329 3.0 13.0 0.00 0.00 0.00 37 1018.7
20210917061045 64 360 4.0 18.0 0.00 0.00 0.00 39 1018.4
20210917060548 63 360 8.0 18.0 0.00 0.00 0.00 39 1018.1
20210917060220 62 32 0.0 4.0 0.00 0.00 0.00 42 1017.6
20210917055551 62 270 1.0 3.0 0.00 0.00 0.00 41 1017.0
20210917055041 62 0 0.0 2.0 0.00 0.00 0.00 41 1016.8
20210917054556 62 0 0.0 2.0 0.00 0.00 0.00 40 1016.7
20210917054041 62 248 0.0 4.0 0.00 0.00 0.00 42 1016.5
20210917053542 63 243 0.0 4.0 0.00 0.00 0.00 41 1016.5
20210917053140 63 224 0.0 4.0 0.00 0.00 0.00 42 1016.4
20210917052555 63 0 0.0 2.0 0.00 0.00 0.00 42 1016.4
20210917052048 64 0 0.0 1.0 0.00 0.00 0.00 42 1016.3
20210917051639 64 0 0.0 1.0 0.00 0.00 0.00 41 1016.1
20210917051041 64 0 0.0 2.0 0.00 0.00 0.00 41 1016.1
20210917050555 64 0 0.0 2.0 0.00 0.00 0.00 39 1016.0
20210917050054 64 227 0.0 4.0 0.00 0.00 0.00 37 1015.8
20210917045545 65 0 1.0 4.0 0.00 0.00 0.00 36 1015.7
20210917045108 65 0 0.0 3.0 0.00 0.00 0.00 40 1015.6
20210917044610 65 0 0.0 4.0 0.00 0.00 0.00 41 1015.6
20210917044050 64 351 1.0 4.0 0.00 0.00 0.00 40 1015.6
20210917043548 64 0 0.0 4.0 0.00 0.00 0.00 36 1015.6
20210917043131 64 238 0.0 6.0 0.00 0.00 0.00 41 1015.5
20210917042551 63 235 1.0 6.0 0.00 0.00 0.00 38 1015.6
20210917042050 64 0 0.0 3.0 0.00 0.00 0.00 40 1015.5
20210917041643 64 255 0.0 3.0 0.00 0.00 0.00 41 1015.5
20210917041041 64 0 0.0 3.0 0.00 0.00 0.00 43 1015.4
20210917040607 64 0 0.0 2.0 0.00 0.00 0.00 44 1015.3
20210917040109 64 0 0.0 2.0 0.00 0.00 0.00 42 1015.2
20210917035549 65 0 0.0 4.0 0.00 0.00 0.00 42 1015.2
20210917035053 65 268 0.0 4.0 0.00 0.00 0.00 41 1015.2
20210917034626 65 348 0.0 4.0 0.00 0.00 0.00 42 1015.2
20210917034043 65 276 0.0 6.0 0.00 0.00 0.00 41 1015.1
20210917033542 65 276 0.0 6.0 0.00 0.00 0.00 40 1015.1
20210917033114 65 284 0.0 3.0 0.00 0.00 0.00 40 1015.0
20210917032547 65 0 0.0 2.0 0.00 0.00 0.00 42 1014.9
20210917032059 66 337 0.0 2.0 0.00 0.00 0.00 39 1014.9
20210917031644 66 273 0.0 1.0 0.00 0.00 0.00 40 1014.9
20210917031041 66 0 0.0 3.0 0.00 0.00 0.00 39 1014.7
20210917030542 66 0 1.0 3.0 0.00 0.00 0.00 39 1014.7
20210917030108 67 0 0.0 3.0 0.00 0.00 0.00 39 1014.7
20210917025603 67 0 0.0 3.0 0.00 0.00 0.00 40 1014.6
20210917025042 67 0 0.0 3.0 0.00 0.00 0.00 38 1014.5
20210917024619 68 0 0.0 2.0 0.00 0.00 0.00 38 1014.5
20210917024054 68 219 0.0 1.0 0.00 0.00 0.00 36 1014.4
20210917023558 69 0 0.0 2.0 0.00 0.00 0.00 38 1014.3
20210917023219 69 0 0.0 2.0 0.00 0.00 0.00 37 1014.2
20210917022557 70 0 0.0 1.0 0.00 0.00 0.00 35 1014.2
20210917022041 70 0 0.0 1.0 0.00 0.00 0.00 36 1014.1
20210917021705 71 0 0.0 3.0 0.00 0.00 0.00 35 1014.0
20210917021049 71 0 0.0 3.0 0.00 0.00 0.00 35 1013.9
20210917020542 72 0 1.0 3.0 0.00 0.00 0.00 33 1013.8
20210917020059 73 0 0.0 2.0 0.00 0.00 0.00 34 1013.8
20210917015541 73 0 0.0 4.0 0.00 0.00 0.00 31 1013.5
20210917015043 74 0 0.0 4.0 0.00 0.00 0.00 31 1013.6
20210917014624 74 224 2.0 4.0 0.00 0.00 0.00 29 1013.4
20210917014042 75 0 0.0 2.0 0.00 0.00 0.00 32 1013.3
20210917013541 75 302 0.0 1.0 0.00 0.00 0.00 30 1013.1
20210917013201 76 0 0.0 1.0 0.00 0.00 0.00 28 1013.1
20210917012541 77 0 0.0 2.0 0.00 0.00 0.00 26 1013.0
20210917012059 77 0 0.0 3.0 0.00 0.00 0.00 26 1012.9
20210917011703 78 0 0.0 3.0 0.00 0.00 0.00 25 1012.9
20210917011041 78 0 0.0 5.0 0.00 0.00 0.00 26 1012.8
20210917010546 78 0 0.0 5.0 0.00 0.00 0.00 26 1012.8
20210917010210 79 275 2.0 3.0 0.00 0.00 0.00 24 1012.7
20210917005544 79 292 0.0 3.0 0.00 0.00 0.00 28 1012.7
20210917005045 79 220 0.0 4.0 0.00 0.00 0.00 26 1012.7
20210917004636 80 219 1.0 4.0 0.00 0.00 0.00 29 1012.7
20210917004048 80 0 0.0 5.0 0.00 0.00 0.00 30 1012.6
20210917003541 81 202 2.0 5.0 0.00 0.00 0.00 30 1012.7
20210917003123 82 225 0.0 1.0 0.00 0.00 0.00 31 1012.5
20210917002543 83 0 0.0 1.0 0.00 0.00 0.00 31 1012.4
20210917002042 83 0 0.0 1.0 0.00 0.00 0.00 30 1012.4
20210917001558 84 0 0.0 3.0 0.00 0.00 0.00 31 1012.4
20210917001041 84 0 0.0 3.0 0.00 0.00 0.00 28 1012.2
20210917000543 84 0 0.0 2.0 0.00 0.00 0.00 29 1012.2
20210917000116 84 0 1.0 2.0 0.00 0.00 0.00 26 1012.2
20210916235556 84 0 0.0 2.0 0.00 0.00 0.00 28 1012.1
20210916235041 84 0 0.0 2.0 0.00 0.00 0.00 24 1012.0
20210916234653 85 0 0.0 2.0 0.00 0.00 0.00 28 1011.9
20210916234041 85 306 0.0 1.0 0.00 0.00 0.00 26 1011.9
20210916233606 85 0 0.0 1.0 0.00 0.00 0.00 29 1011.8
20210916233150 85 0 0.0 2.0 0.00 0.00 0.00 29 1011.8
20210916232543 84 0 0.0 2.0 0.00 0.00 0.00 29 1011.8
20210916232040 84 0 0.0 1.0 0.00 0.00 0.00 26 1011.8
20210916231550 84 0 0.0 0.0 0.00 0.00 0.00 35 1011.8
20210916231105 84 0 0.0 1.0 0.00 0.00 0.00 34 1011.7
20210916230539 83 0 0.0 1.0 0.00 0.00 0.00 33 1011.8
20210916230119 83 0 0.0 1.0 0.00 0.00 0.00 30 1011.7
20210916225543 84 0 0.0 2.0 0.00 0.00 0.00 27 1011.7
20210916225044 84 0 0.0 2.0 0.00 0.00 0.00 25 1011.7
20210916224723 84 0 0.0 1.0 0.00 0.00 0.00 25 1011.6
20210916224101 84 0 0.0 1.0 0.00 0.00 0.00 24 1011.5
20210916223542 84 0 0.0 2.0 0.00 0.00 0.00 23 1011.5
20210916223103 85 0 0.0 3.0 0.00 0.00 0.00 22 1011.6
20210916222541 85 53 0.0 3.0 0.00 0.00 0.00 24 1011.5
20210916222041 85 23 1.0 4.0 0.00 0.00 0.00 23 1011.5
20210916221709 85 26 1.0 4.0 0.00 0.00 0.00 24 1011.5
20210916221043 86 34 2.0 4.0 0.00 0.00 0.00 22 1011.5
20210916220543 85 17 1.0 4.0 0.00 0.00 0.00 22 1011.5
20210916220118 86 352 1.0 4.0 0.00 0.00 0.00 21 1011.6
20210916215610 86 24 2.0 4.0 0.00 0.00 0.00 20 1011.5
20210916215041 86 352 1.0 4.0 0.00 0.00 0.00 21 1011.5
20210916214612 86 9 1.0 6.0 0.00 0.00 0.00 24 1011.6
20210916214105 86 26 2.0 6.0 0.00 0.00 0.00 23 1011.7
20210916213546 86 30 0.0 3.0 0.00 0.00 0.00 22 1011.7
20210916213147 86 0 1.0 5.0 0.00 0.00 0.00 25 1011.7
20210916212545 86 346 1.0 5.0 0.00 0.00 0.00 20 1011.8
20210916212042 86 253 1.0 4.0 0.00 0.00 0.00 20 1011.9
20210916211643 86 15 1.0 5.0 0.00 0.00 0.00 21 1011.9
20210916211040 87 340 1.0 5.0 0.00 0.00 0.00 19 1012.0
20210916210546 87 322 1.0 5.0 0.00 0.00 0.00 19 1012.0
20210916210103 87 344 1.0 7.0 0.00 0.00 0.00 19 1012.0
20210916205604 87 296 2.0 7.0 0.00 0.00 0.00 20 1012.1
20210916205040 87 270 0.0 4.0 0.00 0.00 0.00 20 1012.0
20210916204617 87 333 2.0 4.0 0.00 0.00 0.00 19 1012.0
20210916204041 87 300 1.0 4.0 0.00 0.00 0.00 18 1012.1
20210916203543 87 282 1.0 4.0 0.00 0.00 0.00 18 1012.1
20210916203125 88 299 1.0 5.0 0.00 0.00 0.00 17 1012.0
20210916202558 88 0 1.0 6.0 0.00 0.00 0.00 18 1012.1
20210916202040 88 325 2.0 6.0 0.00 0.00 0.00 17 1012.1
20210916201708 88 47 1.0 6.0 0.00 0.00 0.00 16 1012.0
20210916201116 88 15 0.0 5.0 0.00 0.00 0.00 18 1012.1
20210916200545 87 5 2.0 5.0 0.00 0.00 0.00 19 1012.2
20210916200217 87 0 1.0 4.0 0.00 0.00 0.00 18 1012.2
20210916195612 86 0 0.0 4.0 0.00 0.00 0.00 19 1012.2
20210916195042 86 0 0.0 7.0 0.00 0.00 0.00 18 1012.3
20210916194659 86 0 1.0 7.0 0.00 0.00 0.00 18 1012.3
20210916194053 87 28 1.0 6.0 0.00 0.00 0.00 16 1012.4
20210916193547 87 72 0.0 6.0 0.00 0.00 0.00 19 1012.5
20210916193116 88 123 1.0 10.0 0.00 0.00 0.00 16 1012.4
20210916192542 89 96 2.0 11.0 0.00 0.00 0.00 17 1012.5
20210916192043 89 73 3.0 11.0 0.00 0.00 0.00 16 1012.5
20210916191632 89 51 3.0 10.0 0.00 0.00 0.00 17 1012.5
20210916191043 88 36 5.0 9.0 0.00 0.00 0.00 15 1012.5
20210916190543 88 9 2.0 9.0 0.00 0.00 0.00 16 1012.6
20210916190133 88 37 3.0 7.0 0.00 0.00 0.00 17 1012.7
20210916185543 88 53 1.0 8.0 0.00 0.00 0.00 17 1012.7
20210916185104 89 115 2.0 8.0 0.00 0.00 0.00 15 1012.7
20210916184707 89 63 3.0 8.0 0.00 0.00 0.00 18 1012.8
20210916184052 89 0 1.0 4.0 0.00 0.00 0.00 16 1012.8
20210916183543 89 177 2.0 5.0 0.00 0.00 0.00 15 1012.8
20210916183108 89 33 1.0 6.0 0.00 0.00 0.00 18 1012.9
20210916182543 89 105 1.0 6.0 0.00 0.00 0.00 15 1012.9
20210916182044 89 45 1.0 6.0 0.00 0.00 0.00 16 1012.9
20210916181609 89 0 3.0 6.0 0.00 0.00 0.00 15 1013.0
20210916181042 88 65 1.0 8.0 0.00 0.00 0.00 18 1013.1
20210916180549 88 73 3.0 8.0 0.00 0.00 0.00 18 1013.1
20210916180116 87 92 2.0 8.0 0.00 0.00 0.00 20 1013.3
20210916175548 87 62 2.0 7.0 0.00 0.00 0.00 17 1013.3
20210916175043 87 66 1.0 7.0 0.00 0.00 0.00 18 1013.3
20210916174658 86 86 2.0 9.0 0.00 0.00 0.00 18 1013.4
20210916174043 86 43 4.0 9.0 0.00 0.00 0.00 20 1013.5
20210916173539 86 33 1.0 10.0 0.00 0.00 0.00 20 1013.5
20210916173149 85 57 2.0 10.0 0.00 0.00 0.00 20 1013.6
20210916172543 85 80 3.0 13.0 0.00 0.00 0.00 21 1013.8
20210916172050 85 32 3.0 13.0 0.00 0.00 0.00 21 1013.8
20210916171617 84 352 3.0 9.0 0.00 0.00 0.00 22 1014.0
20210916171049 84 103 2.0 9.0 0.00 0.00 0.00 23 1014.0